Theta_e
322 322 321 320 318 318 317 315 313 314 314 314 314 315 316 317 315 315 317 318 318 318 318 319 319 319 318 318 318 318 318 318 318 318 318 318 318 318 318 318 318 318 318
322 322 321 320 319 317 316 316 314 313 313 314 314 314 315 317 317 317 317 317 317 318 318 318 318 317 318 318 317 317 318 318 318 318 318 318 319 319 318 318 319 318 318
321 322 322 322 321 319 317 317 316 314 313 313 313 313 314 315 315 316 316 316 316 317 317 318 317 317 317 317 317 317 317 317 318 318 318 318 318 318 318 318 318 317 316
321 321 321 321 322 321 320 319 317 316 315 314 313 313 313 313 314 314 315 315 315 316 316 317 317 317 317 317 318 317 317 317 317 317 318 318 318 318 317 316 314 315 314
322 321 321 321 321 322 322 321 320 318 317 316 314 314 313 313 313 314 314 315 315 315 315 316 316 316 317 317 317 317 317 317 318 318 318 317 316 312 313 313 312 312 310
323 322 322 321 321 321 321 322 322 321 320 318 316 315 314 314 314 314 314 314 314 314 314 314 315 315 315 316 316 316 317 317 318 318 318 317 316 315 313 311 310 307 301
324 323 323 323 322 321 321 321 322 322 322 322 320 317 316 316 315 315 314 313 313 313 313 314 314 315 315 315 316 316 317 319 319 318 318 318 317 316 313 310 308 305 301
317 318 319 322 323 323 322 321 321 321 321 322 322 321 320 319 318 317 316 315 313 313 314 314 315 315 316 317 317 316 317 317 317 317 315 314 315 313 311 307 303 297 293
308 308 309 309 313 319 324 324 323 322 322 322 322 322 322 322 322 321 320 318 315 315 316 317 317 318 318 318 318 317 313 307 304 305 303 300 299 299 300 301 295 293 289
303 303 302 302 305 307 310 317 324 324 324 323 323 322 322 323 323 323 323 320 318 317 317 317 318 318 318 318 318 313 301 296 294 291 289 290 291 291 292 293 291 289 287
299 297 297 296 298 300 305 308 310 316 323 323 323 320 317 313 317 317 320 322 319 317 316 310 307 306 310 311 312 307 298 288 286 286 285 285 284 284 284 286 286 287 286
295 293 292 291 292 293 297 302 304 303 302 300 299 296 296 298 298 303 308 305 313 315 299 294 291 292 292 292 291 287 286 286 285 284 283 282 282 282 282 282 282 283 283
292 290 288 287 288 288 288 290 295 299 295 291 290 288 286 286 286 287 291 293 290 288 287 286 284 285 284 284 284 284 284 284 283 282 281 281 281 281 281 280 280 280 280
290 288 286 286 285 285 286 286 286 289 290 290 289 287 286 286 284 283 283 284 284 284 282 282 282 282 282 283 284 284 283 282 281 281 280 280 279 279 278 278 277 277 277
288 288 286 285 285 284 284 285 285 285 286 286 285 285 284 284 283 283 283 282 282 283 283 282 281 281 280 280 279 280 280 280 279 279 278 277 276 276 275 275 274 274 275
286 286 285 285 284 284 284 284 284 284 284 284 284 284 284 284 283 283 283 283 283 283 282 281 280 280 278 278 278 277 277 277 276 276 275 275 274 274 274 273 272 272 272
284 284 284 284 284 283 283 283 283 282 282 283 283 284 284 283 283 282 282 282 281 281 280 279 278 278 277 277 275 275 274 274 274 273 273 272 272 272 271 270 269 270 270
283 283 282 282 282 281 281 281 280 279 278 278 278 279 279 279 279 279 280 281 278 277 277 276 276 276 275 275 274 273 273 273 272 271 271 270 270 269 269 269 268 268 269
281 281 281 280 280 280 279 279 278 277 277 276 276 277 276 276 277 276 277 275 275 274 274 274 274 273 273 273 272 272 271 271 270 269 269 268 268 268 267 267 267 267 267
279 279 279 278 278 277 277 277 276 275 274 274 273 273 275 277 274 273 273 273 272 272 272 271 271 271 271 271 270 270 269 268 268 267 267 267 267 266 266 266 266 266 266
277 277 277 277 276 276 275 275 274 274 273 272 272 272 272 271 270 270 270 270 270 270 270 270 269 269 269 269 268 268 268 267 266 266 266 265 265 265 265 265 265 265 265
276 276 276 275 275 274 274 273 273 272 272 271 270 270 270 269 268 268 268 268 268 268 268 268 267 267 267 267 267 267 266 266 265 265 265 264 264 264 264 264 264 264 265
275 274 274 273 273 273 272 272 271 271 270 269 269 269 268 268 267 266 266 266 266 266 266 266 265 265 265 265 265 265 265 264 263 263 263 263 263 263 263 263 264 264 264
273 272 272 272 271 271 270 270 269 269 269 268 268 267 266 266 266 265 265 265 265 265 264 264 264 264 264 263 263 263 263 263 263 263 263 263 262 262 262 263 263 263 263
271 271 270 270 270 269 269 269 269 268 268 267 267 266 265 265 264 264 264 264 264 264 263 263 263 263 263 263 262 262 262 262 261 261 261 262 262 262 262 262 262 263 263
269 269 269 269 268 268 267 267 267 267 266 266 266 265 265 264 263 263 263 263 263 262 262 262 262 262 261 261 261 261 260 260 260 261 262 262 262 262 262 262 263 263 263
Wind_Speed
31 29 28 30 31 33 33 35 37 37 37 36 39 39 38 37 40 39 38 37 38 39 38 40 38 35 37 38 38 37 34 29 19 31 28 34 37 39 39 37 36 36 36
32 31 29 30 31 31 34 36 35 38 39 40 39 40 41 40 40 39 39 34 40 39 40 41 41 40 40 39 37 37 33 32 28 27 27 31 39 44 41 33 34 38 38
32 31 32 31 32 31 32 35 36 37 37 39 39 42 41 40 40 41 39 40 38 40 39 39 42 39 39 38 38 35 36 37 32 30 34 32 34 39 37 36 36 35 37
30 32 32 34 31 33 32 36 38 39 39 39 39 38 41 40 41 42 42 41 39 39 40 41 40 39 41 38 38 38 39 35 34 31 31 31 31 37 35 29 30 34 38
26 29 32 34 36 34 33 34 35 37 38 37 37 39 39 40 42 42 41 40 40 39 40 44 46 47 46 45 39 40 36 33 33 30 31 31 28 24 26 28 27 26 30
23 29 28 31 32 35 35 34 36 36 35 36 39 40 40 41 44 46 44 41 41 41 42 42 43 44 49 51 53 55 47 38 37 33 32 30 33 32 31 29 25 18 6
26 17 19 23 25 28 27 31 34 36 36 37 38 38 40 44 44 45 47 47 39 41 42 42 41 41 44 49 53 54 54 55 52 46 39 38 34 35 34 28 29 23 13
21 15 8 9 22 29 30 35 37 34 37 37 39 40 39 42 44 48 48 48 47 46 44 42 41 42 42 44 45 41 46 51 54 54 47 40 39 32 27 30 28 17 13
21 19 16 15 13 11 25 31 33 32 34 37 37 36 38 40 41 44 46 49 44 45 45 44 43 43 48 46 44 44 38 32 27 31 27 20 14 10 15 18 21 22 4
21 18 16 15 13 12 10 11 26 30 34 32 33 34 38 39 38 43 46 45 41 42 43 46 49 51 49 48 47 43 33 28 25 24 26 25 22 19 16 15 19 17 12
18 18 18 18 14 15 11 10 11 10 24 27 28 24 19 17 25 27 39 48 39 35 34 36 30 27 29 33 37 36 26 29 25 28 27 25 22 20 19 18 15 13 12
18 18 19 20 19 19 18 16 15 15 13 13 7 8 7 2 7 12 17 20 38 41 21 16 15 11 12 11 18 30 33 32 29 27 26 22 21 21 19 17 15 14 10
15 17 21 25 25 23 24 23 18 17 16 17 18 19 21 24 24 24 15 14 20 25 24 39 41 41 41 38 34 31 29 32 28 22 22 21 20 18 13 15 14 13 11
13 16 18 20 23 28 26 26 24 19 14 13 14 16 17 19 17 19 25 36 44 41 30 35 38 39 36 35 35 31 28 25 28 26 23 22 18 18 17 14 15 12 11
14 14 15 16 19 25 35 32 28 31 20 18 18 16 15 19 19 21 22 25 30 39 39 34 28 26 27 30 28 32 29 27 25 22 22 21 17 16 18 15 14 11 9
14 14 14 14 16 18 23 33 41 39 37 35 32 30 27 27 27 35 26 32 26 31 30 27 26 23 24 26 22 25 25 25 22 20 19 17 15 15 16 15 12 12 9
14 13 15 15 15 15 17 21 23 32 39 39 39 36 32 28 27 28 29 31 26 31 25 23 23 23 23 20 22 25 22 20 18 19 16 14 14 14 13 13 12 9 7
20 19 18 18 19 19 19 19 21 21 21 25 34 35 34 32 28 25 28 31 30 30 25 23 22 23 22 20 20 21 19 18 18 18 16 14 12 12 12 10 9 11 8
21 21 21 21 21 21 21 21 20 21 21 20 23 28 27 29 30 29 30 32 26 24 25 23 25 23 21 19 20 20 18 17 15 16 15 13 12 12 13 12 12 12 12
23 23 25 25 24 23 23 22 21 21 22 23 23 21 23 27 29 29 29 27 25 23 22 22 21 20 18 17 18 17 17 16 14 14 13 12 11 11 12 12 13 14 12
22 23 23 26 25 23 22 22 20 21 21 22 23 24 24 28 23 24 24 23 21 20 19 19 19 17 16 15 14 14 14 13 11 10 10 9 8 8 8 9 9 10 10
22 23 22 23 23 22 22 22 21 20 19 19 21 21 21 24 23 23 22 21 20 18 16 15 16 15 14 13 11 10 10 9 8 8 8 7 5 5 5 6 7 8 10
21 21 21 22 23 22 21 20 21 19 20 19 19 21 21 22 21 20 19 17 16 15 13 12 12 12 10 9 7 6 6 7 8 9 8 6 3 3 3 4 6 7 10
20 20 20 20 20 20 19 19 20 19 19 19 19 19 19 19 18 16 14 13 12 12 11 11 11 10 8 7 6 5 6 7 9 9 6 4 2 1 0 1 5 9 12
19 19 19 19 19 19 18 18 18 17 16 16 16 15 15 15 14 12 10 9 9 8 8 9 10 9 6 5 5 7 8 7 6 3 2 2 3 2 1 4 7 10 12
18 19 19 18 18 17 18 18 16 14 14 13 12 11 10 10 10 8 6 5 4 4 5 5 6 6 7 7 8 9 7 6 6 4 1 1 1 1 2 5 9 11 14
Wind_Direction
184 188 189 195 199 210 210 211 209 207 207 207 208 211 216 219 222 221 222 224 226 228 227 226 225 223 236 242 240 239 237 232 236 258 255 265 270 265 268 270 267 265 268
186 188 193 198 200 205 210 215 212 211 211 209 211 212 213 219 220 222 223 222 227 228 229 230 231 233 237 241 242 241 238 241 234 251 258 257 259 263 267 261 264 269 271
190 190 193 197 201 204 207 213 215 216 214 214 215 217 217 219 222 226 226 229 227 231 230 231 233 231 236 239 240 239 242 245 242 246 258 259 257 261 257 257 262 263 270
194 197 200 203 201 204 208 213 215 216 216 217 218 221 223 223 224 225 229 231 232 232 232 232 233 230 234 235 235 239 243 244 247 243 248 252 254 254 251 255 254 259 257
202 204 208 208 209 207 207 212 215 216 217 217 218 221 225 224 224 224 226 229 231 232 232 235 236 238 242 241 239 243 244 244 244 244 249 251 242 234 238 250 246 252 258
213 217 216 212 212 213 212 211 212 215 215 215 217 219 221 225 229 230 228 228 230 232 235 237 240 242 246 247 249 251 248 240 240 243 250 248 247 242 245 240 239 222 243
222 222 225 226 227 229 227 219 218 217 217 216 217 218 222 227 229 230 231 231 233 234 235 237 240 241 244 247 250 250 251 246 244 247 248 247 247 243 238 229 221 212 213
40 36 16 278 231 225 222 224 228 223 223 224 223 223 226 231 231 232 234 233 232 236 237 238 238 241 242 244 245 243 245 245 247 247 246 251 249 244 231 229 220 184 139
20 14 6 352 329 295 235 229 229 224 226 227 229 229 228 236 236 236 238 233 234 237 238 239 239 242 245 243 240 237 233 234 242 244 243 235 224 213 213 200 165 151 128
8 6 2 2 1 341 338 304 252 231 229 228 231 231 233 238 240 239 236 228 231 234 239 239 240 243 243 242 237 228 206 196 177 148 130 125 126 125 146 157 158 129 120
7 6 9 9 6 7 2 351 335 294 244 228 225 224 230 242 237 244 240 232 230 232 232 234 237 243 239 234 228 221 201 162 130 122 115 107 101 98 94 101 109 109 102
17 18 19 19 18 17 19 31 34 24 33 37 69 72 51 348 306 261 252 268 238 222 190 157 128 135 123 127 126 122 122 125 116 103 93 82 83 89 96 97 95 99 106
33 30 27 32 33 33 23 17 38 53 62 60 61 53 41 39 43 59 77 106 87 84 89 109 104 104 104 97 96 89 100 111 105 86 92 92 96 99 83 77 81 78 75
45 47 40 42 41 42 41 34 29 25 59 80 98 98 85 79 60 49 71 89 100 97 85 82 85 95 93 102 104 106 107 100 97 97 92 92 93 85 76 65 61 48 58
50 53 57 56 57 58 57 50 50 51 60 67 68 69 77 87 85 96 105 89 97 103 100 89 78 72 81 80 77 89 94 92 85 89 90 89 85 78 66 56 54 55 64
61 56 55 61 69 73 77 71 66 68 70 76 80 84 83 90 96 100 90 93 97 98 97 100 92 93 87 88 84 80 86 91 90 91 86 83 81 79 74 63 57 56 50
60 68 69 69 69 70 74 80 80 66 67 68 74 77 80 81 79 86 95 97 85 88 74 76 86 88 83 80 83 89 86 90 96 92 91 84 80 77 80 74 62 54 41
63 65 67 71 75 73 67 70 74 72 65 60 63 68 71 71 70 72 88 96 70 72 69 70 73 73 79 85 87 88 89 95 90 86 82 78 77 78 76 71 60 50 38
66 61 64 65 68 72 74 69 71 70 67 62 62 70 71 76 79 73 82 76 72 64 71 71 83 88 91 98 100 99 99 94 93 91 87 82 78 76 71 60 56 48 42
71 82 84 74 68 64 64 66 64 62 63 60 56 56 78 88 72 70 75 75 74 77 84 84 89 96 102 105 104 103 101 95 90 86 79 73 64 63 61 55 49 42 33
76 73 76 81 77 70 66 65 66 70 70 67 64 70 84 80 72 75 81 83 87 89 92 94 94 95 91 90 92 93 93 92 84 73 62 59 56 61 54 45 37 32 22
77 78 74 74 76 75 79 82 76 71 70 72 72 78 86 85 81 82 82 84 87 88 86 87 87 83 81 81 82 85 88 83 69 47 31 25 27 38 39 30 22 19 14
86 81 77 75 82 83 75 78 82 84 85 86 87 85 83 85 86 84 80 80 83 84 80 77 80 80 74 76 77 73 62 45 23 8 1 4 356 355 11 19 15 11 12
88 83 80 83 85 86 87 87 89 91 92 94 93 94 91 90 89 86 83 83 86 80 70 65 62 57 53 55 51 35 19 4 345 334 326 324 304 250 161 38 10 360 351
90 90 91 93 93 95 97 96 98 99 99 100 102 102 99 93 86 88 94 91 82 70 57 40 31 35 43 37 18 359 349 345 348 348 328 239 212 175 356 348 350 353 351
93 95 95 96 96 99 99 95 90 96 98 95 96 99 96 83 72 73 83 77 62 39 20 15 14 16 6 346 343 352 358 349 331 319 284 239 241 265 344 354 350 347 344